Location: Chiroubles
(46.1812°N, 4.6660°E)
Time: 17:08:41
(UTC+00:00)

Meteor 1-25 Rocket - Pass Details

Date: 15 August 2020
Orbit: 837 x 891 km, 81.2° (Epoch: 23 September)

Event Time Altitude Azimuth Distance (km) Brightness Sun altitude
Rises 20:17:18 0° 187° (S) 3,379 7.0 -14.0°
Reaches altitude 10° 20:19:41 10° 187° (S) 2,453 6.3 -14.4°
Maximum altitude 20:25:15 85° 100° (E) 858 4.2 -15.1°
Drops below altitude 10° 20:30:56 10° 12° (NNE) 2,501 7.0 -15.9°
Sets 20:33:23 0° 12° (NNE) 3,450 7.8 -16.2°
